User: anonymous   Login
Location: Unspecified
(0.0000°N, 0.0000°E)
Time: 13:50:43
(UTC+00:00)
Language:

APRIZESAT 3 - Orbit

View from above orbital plane
View from above orbital plane
View from above satellite
View from above satellite

Ground track
Ground track

The orbit data is extracted from the following two-line orbital elements,

1 35686U 09041F   14328.88449841  .00001510  00000-0  17226-3 0  6856
2 35686 098.1694 279.2227 0075478 172.8291 251.6970 14.85686365288234
Epoch (UTC): 24 November 2014 21:13:40
Eccentricity: 0.0075478
inclination: 98.1694°
perigee height: 558 km
apogee height: 664 km
right ascension of ascending node: 279.2227°
argument of perigee: 172.8291°
revolutions per day: 14.85686365
mean anomaly at epoch: 251.6970°
orbit number at epoch: 28823

The dashed part of the orbit path shows where the satellite is in the earth's shadow,  

DLR